Location: Evansville
(37.9747°N, 87.5558°W)
Time: 03:29:59
(UTC-06:00)

BlueWalker 3 - Pass Details

Date: 19 December 2025
Orbit: 451 x 463 km, 53.2° (Epoch: 18 January)

Event Time Altitude Azimuth Distance (km) Brightness Sun altitude
Rises 05:21:19 0° 184° (S) 2,441 5.6 -19.1°
Reaches altitude 10° 05:24:13 10° 158° (SSE) 1,577 4.9 -18.5°
Maximum altitude 05:26:08 14° 126° (SE) 1,356 5.1 -18.2°
Drops below altitude 10° 05:28:04 10° 93° (E) 1,587 5.7 -17.8°
Sets 05:30:59 0° 67° (ENE) 2,469 6.3 -17.2°
